Погода в Благодарном

Россия / Ставропольский край     45°05′44″N   43°26′24″E
темп.,
°C
ветер,
м/с
пор.,
м/с
влажн.,
%
обл.,
%
осадки,
мм/ч
давл.,
гПа
погр.,
м
21 апреля, ср
ср2100:00+14сз61378100 0.6 1012424
03:00+12ссз4975100 1.1 1015415
06:00+12сз3777100 0.3 1017577
09:00+11сз61080100 0.4 1018694
12:00+11зсз5878100 0.1 1019607
15:00+12сз3673100 2.8 1020598
18:00+11з1182100 0.0 102120
21:00+11зсз2281100 0.0 102224
22 апреля, чт
чт2200:00+11з117998 0.0 102111
03:00+10в0079100 0.0 102110
06:00+10в2286100 0.3 102233
09:00+9вюв3596100 6.1 1023205
12:00+11в3389100 1.4 1023407
15:00+13в2278100 1.6 1023592
18:00+13юв3481100 0.1 1022272
21:00+11юв3489100 0.1 1022100
23 апреля, пт
пт2300:00+10зсз3596100 2.6 1022195
03:00+10з2396100 7.6 102293
06:00+10зюз1194100 1.9 102334
09:00+10ююз1292100 2.8 1024135
12:00+14ююз337036 0.3 1022892
15:00+17сз355234 1.1 10211859
18:00+15св236641 0.0 102184
21:00+11вюв22705 0.0 102010
24 апреля, сб
сб2400:00+10юв2279100 0.0 101922
03:00+10ююв2282100 0.0 101832
06:00+11ю2285100 0.0 101851
09:00+15ю466640 0.0 1018645
12:00+19сз344838 0.0 10171610
15:00+19сз455199 0.0 10171221
18:00+16сз3465100 0.0 101879
21:00+13ссз2577100 0.1 1020154
25 апреля, вс
вс2500:00+13зсз0080100 0.1 102011
03:00+12с2487100 0.1 1019138
06:00+11с3595100 2.2 1019296
09:00+9с5693100 5.4 1020362
12:00+8с6787100 0.1 1019426
15:00+8ссз5791100 0.3 1019419
18:00+7ссз5892100 0.0 1018551
21:00+7ссз4793100 0.1 1018521